User: anonymous
Location: Caltech
(34.1382°N, 118.1253°W)
Time: 14:36:02
(UTC-07:00)
Language:

Iridium 49 - Orbit

View from above orbital plane
View from above orbital plane
View from above satellite
View from above satellite

Ground track
Ground track

The orbit data is extracted from the following two-line orbital elements,

1 25108U 97082E   14294.48138752  .00000239  00000-0  78400-4 0  9627
2 25108 086.3923 300.7594 0002160 105.5375 004.3900 14.34218149881383
Epoch (UTC): 21 October 2014 11:33:11
Eccentricity: 0.0002160
inclination: 86.3923°
perigee height: 776 km
apogee height: 779 km
right ascension of ascending node: 300.7594°
argument of perigee: 105.5375°
revolutions per day: 14.34218149
mean anomaly at epoch: 4.3900°
orbit number at epoch: 88138

The dashed part of the orbit path shows where the satellite is in the earth's shadow,  

DLR